N0WXR Weather Reports


time (UTC)temp
C
wind
direction
speed
KPH
gust
KPH
rain 1hr
cm
rain 24hr
cm
rain mn
cm
humidity
%
barometer
mb
20260906072253 21 237 0.0 1.6 0.00 0.00 0.00 99 990.5
20260906071752 21 272 1.6 1.6 0.00 0.00 0.00 99 990.5
20260906071254 21 299 0.0 0.0 0.00 0.00 0.00 99 990.5
20260906070752 21 217 0.0 1.6 0.00 0.00 0.00 99 990.9
20260906070252 21 296 0.0 0.0 0.00 0.00 0.00 99 990.9
20260906065753 21 89 0.0 0.0 0.00 0.00 0.00 99 990.9
20260906065252 21 230 0.0 0.0 0.00 0.00 0.00 99 990.9
20260906064752 21 129 0.0 0.0 0.00 0.00 0.00 99 990.5
20260906064253 21 283 0.0 0.0 0.00 0.00 0.00 99 990.9
20260906063752 21 269 0.0 1.6 0.00 0.00 0.00 99 990.5
20260906063252 21 89 0.0 1.6 0.00 0.00 0.00 99 990.9
20260906062752 21 263 0.0 1.6 0.00 0.00 0.00 99 990.9
20260906062253 21 284 0.0 0.0 0.00 0.00 0.00 99 991.2
20260906061753 21 248 0.0 1.6 0.00 0.00 0.00 99 991.2
20260906061253 21 59 0.0 1.6 0.00 0.00 0.00 99 991.2
20260906060753 21 255 0.0 0.0 0.00 0.00 0.00 99 991.2
20260906060254 21 330 0.0 1.6 0.00 0.00 0.00 99 991.2
20260906055752 21 129 0.0 0.0 0.00 0.00 0.00 99 991.5
20260906055252 21 329 0.0 1.6 0.00 0.00 0.00 98 991.5
20260906054753 21 101 0.0 1.6 0.00 0.00 0.00 98 991.5
20260906054252 21 253 0.0 0.0 0.00 0.00 0.00 98 991.5
20260906053753 21 224 0.0 0.0 0.00 0.00 0.00 98 991.5
20260906053252 21 224 0.0 1.6 0.00 0.00 0.00 98 991.9
20260906052752 21 205 0.0 0.0 0.00 0.00 0.00 98 991.5
20260906052252 21 110 0.0 0.0 0.00 0.00 0.00 98 991.9
20260906051752 21 242 0.0 0.0 0.00 0.00 0.00 97 991.9
20260906051252 21 264 1.6 3.2 0.00 0.00 0.00 98 991.5
20260906050752 21 261 0.0 3.2 0.00 0.00 0.00 97 991.9
20260906050254 21 104 0.0 1.6 0.00 0.00 0.00 97 991.5
20260906045754 21 246 0.0 3.2 0.00 0.00 0.00 97 991.9
20260906045252 21 104 0.0 0.0 0.00 0.00 0.00 97 991.9
20260906044752 21 269 0.0 0.0 0.00 0.00 0.00 97 991.5
20260906044253 21 281 0.0 1.6 0.00 0.00 0.00 96 991.9
20260906043752 21 225 0.0 1.6 0.00 0.00 0.00 95 991.5
20260906043252 21 44 0.0 0.0 0.00 0.00 0.00 95 991.9
20260906042752 22 147 0.0 0.0 0.00 0.00 0.00 95 991.9
20260906042252 22 62 0.0 0.0 0.00 0.00 0.00 94 991.9
20260906041752 22 242 0.0 1.6 0.00 0.00 0.00 94 992.2
20260906041252 22 230 0.0 1.6 0.00 0.00 0.00 94 991.9
20260906040752 22 309 0.0 0.0 0.00 0.00 0.00 94 992.2
20260906040252 22 69 0.0 0.0 0.00 0.00 0.00 94 992.2
20260906035752 22 217 0.0 3.2 0.00 0.00 0.05 94 992.2
20260906035253 22 135 0.0 1.6 0.00 0.00 0.05 94 992.6
20260906034752 21 250 1.6 1.6 0.00 0.00 0.05 95 992.2
20260906034253 21 226 0.0 0.0 0.00 0.00 0.05 95 992.6
20260906033752 22 203 0.0 1.6 0.00 0.00 0.05 94 992.2
20260906033252 22 269 0.0 1.6 0.00 0.00 0.05 94 992.2
20260906032753 22 246 0.0 1.6 0.00 0.00 0.05 94 992.2
20260906032253 22 242 0.0 1.6 0.00 0.00 0.05 94 992.6
20260906031752 22 119 0.0 1.6 0.00 0.00 0.05 94 992.6
20260906031253 22 301 0.0 1.6 0.00 0.00 0.05 94 992.6
20260906030752 22 316 0.0 1.6 0.00 0.00 0.05 93 992.6
20260906030252 22 242 0.0 1.6 0.00 0.00 0.05 93 992.2
20260906025753 22 217 0.0 0.0 0.00 0.00 0.05 93 992.2
20260906025253 22 269 0.0 0.0 0.00 0.00 0.05 92 992.2
20260906024752 22 69 0.0 1.6 0.00 0.00 0.05 92 991.9
20260906024252 22 142 0.0 1.6 0.00 0.00 0.05 92 991.9
20260906023752 22 255 0.0 1.6 0.00 0.00 0.05 92 991.9
20260906023252 22 75 0.0 0.0 0.00 0.00 0.05 91 991.9
20260906022752 22 113 0.0 0.0 0.00 0.00 0.05 91 991.9
20260906022253 22 256 0.0 1.6 0.00 0.00 0.05 90 991.9
20260906021752 22 283 0.0 0.0 0.00 0.00 0.05 90 991.9
20260906021252 22 269 0.0 0.0 0.00 0.00 0.05 90 991.9
20260906020752 22 233 0.0 1.6 0.00 0.00 0.05 89 991.5
20260906020252 22 224 0.0 0.0 0.00 0.00 0.05 89 991.9
20260906015752 22 269 0.0 0.0 0.00 0.00 0.05 88 991.9
20260906015252 22 255 0.0 1.6 0.00 0.00 0.05 87 991.9
20260906014752 22 242 0.0 0.0 0.00 0.00 0.05 87 991.9
20260906014252 23 242 0.0 0.0 0.00 0.00 0.05 86 991.9
20260906013752 23 269 0.0 0.0 0.00 0.00 0.05 85 991.9
20260906013252 23 209 0.0 0.0 0.00 0.00 0.05 85 991.9
20260906012752 23 224 0.0 0.0 0.00 0.00 0.05 84 991.9
20260906012252 23 135 0.0 0.0 0.00 0.00 0.05 84 991.9
20260906011752 23 75 0.0 1.6 0.00 0.00 0.05 83 991.9
20260906011252 23 224 0.0 1.6 0.00 0.00 0.05 83 991.9
20260906010752 23 304 0.0 3.2 0.00 0.00 0.05 83 991.5
20260906010252 23 129 0.0 0.0 0.00 0.00 0.05 83 991.9
20260906005752 23 242 0.0 0.0 0.00 0.00 0.05 81 991.9
20260906005252 23 335 0.0 0.0 0.00 0.00 0.05 81 991.5
20260906004752 23 62 0.0 0.0 0.00 0.00 0.05 81 991.2
20260906004254 23 255 0.0 1.6 0.00 0.00 0.05 81 991.2
20260906003752 24 269 0.0 0.0 0.00 0.00 0.05 80 991.2
20260906003252 24 273 0.0 0.0 0.00 0.00 0.05 79 991.2
20260906002752 24 297 0.0 0.0 0.00 0.00 0.05 78 991.2
20260906002252 25 255 0.0 1.6 0.00 0.00 0.05 76 991.2
20260906001752 25 284 0.0 0.0 0.00 0.00 0.05 76 991.2
20260906001253 25 49 0.0 0.0 0.00 0.00 0.05 74 991.2
20260906000752 25 135 0.0 0.0 0.00 0.00 0.05 73 991.5
20260906000252 25 255 0.0 1.6 0.00 0.00 0.05 72 991.2
20260905235752 25 246 1.6 1.6 0.00 0.00 0.05 73 991.2
20260905235252 26 142 0.0 0.0 0.00 0.00 0.05 73 991.2
20260905234752 26 118 0.0 0.0 0.00 0.00 0.05 71 990.9
20260905234252 26 253 0.0 1.6 0.00 0.00 0.05 70 990.9
20260905233753 26 260 0.0 0.0 0.00 0.00 0.05 68 990.9
20260905233252 27 117 0.0 1.6 0.00 0.00 0.05 68 990.9
20260905232752 27 255 0.0 0.0 0.00 0.00 0.05 65 990.5
20260905232252 28 135 0.0 0.0 0.00 0.00 0.05 62 990.5
20260905231752 28 231 0.0 0.0 0.00 0.00 0.05 61 990.5
20260905231252 28 50 0.0 0.0 0.00 0.00 0.05 62 990.2
20260905230752 28 255 0.0 0.0 0.00 0.00 0.05 61 990.5
20260905230252 28 315 0.0 0.0 0.00 0.00 0.05 59 990.5
20260905225752 28 135 0.0 0.0 0.00 0.00 0.05 58 990.2
20260905225252 28 235 0.0 1.6 0.00 0.00 0.05 59 990.2
20260905224753 28 92 0.0 1.6 0.00 0.00 0.05 55 990.2
20260905224252 29 244 1.6 3.2 0.00 0.00 0.05 55 990.2
20260905223752 29 254 0.0 1.6 0.00 0.00 0.05 55 990.5
20260905223252 29 224 0.0 1.6 0.00 0.00 0.05 55 990.5
20260905222752 29 215 0.0 9.7 0.00 0.00 0.05 53 990.5
20260905222252 29 252 3.2 6.4 0.00 0.00 0.05 53 990.5
20260905221752 28 243 0.0 6.4 0.00 0.00 0.05 53 990.2
20260905221253 28 81 1.6 6.4 0.00 0.00 0.05 54 990.2
20260905220752 28 276 1.6 6.4 0.00 0.00 0.05 54 990.5
20260905220252 28 332 0.0 8.0 0.00 0.00 0.05 53 990.2
20260905215752 28 208 0.0 14.5 0.00 0.00 0.05 54 990.2
20260905215253 28 216 4.8 8.0 0.00 0.00 0.05 54 990.2
20260905214752 28 253 3.2 4.8 0.03 0.00 0.05 56 990.2
20260905214252 28 233 3.2 8.0 0.03 0.00 0.05 56 990.5
20260905213752 28 304 1.6 3.2 0.05 0.00 0.05 62 990.5
20260905213252 27 232 4.8 11.3 0.05 0.00 0.05 63 990.5
20260905212752 27 257 1.6 3.2 0.05 0.00 0.05 68 990.5
20260905212254 26 284 3.2 4.8 0.05 0.00 0.05 74 991.2
20260905211752 26 44 0.0 0.0 0.05 0.00 0.05 75 991.2
20260905211252 26 268 3.2 4.8 0.05 0.00 0.05 73 991.5
20260905210754 26 259 3.2 4.8 0.05 0.00 0.05 76 991.5
20260905210254 27 140 0.0 1.6 0.05 0.00 0.05 73 991.5
20260905205754 27 230 0.0 4.8 0.05 0.00 0.05 72 991.5
20260905205252 27 228 0.0 6.4 0.03 0.00 0.05 70 990.9
20260905204752 28 214 0.0 3.2 0.03 0.00 0.05 67 990.9
20260905204253 28 222 3.2 8.0 0.03 0.00 0.03 61 991.2
20260905203752 29 206 0.0 6.4 0.00 0.00 0.03 58 990.9
20260905203252 29 233 0.0 4.8 0.00 0.00 0.00 58 991.2
20260905202752 30 242 0.0 4.8 0.00 0.00 0.00 57 991.2
20260905202253 30 239 11.3 19.3 0.00 0.00 0.00 55 991.5
20260905201753 30 248 3.2 4.8 0.00 0.00 0.00 57 991.5
20260905201253 30 178 3.2 6.4 0.00 0.00 0.00 55 991.2
20260905200752 30 274 3.2 4.8 0.00 0.00 0.00 55 990.9
20260905200252 30 340 0.0 3.2 0.00 0.00 0.00 35 990.9
20260905195752 31 129 0.0 0.0 0.00 0.00 0.00 31 990.2
20260905195252 32 284 0.0 1.6 0.00 0.00 0.00 33 990.2
20260905194756 33 227 4.8 4.8 0.00 0.00 0.00 49 990.2
20260905194252 33 133 0.0 4.8 0.00 0.00 0.00 49 990.2
20260905193754 34 164 0.0 1.6 0.00 0.00 0.00 48 990.2
20260905193252 35 227 0.0 3.2 0.00 0.00 0.00 46 989.8
20260905192752 35 274 1.6 3.2 0.00 0.00 0.00 46 990.2
20260905192253 36 98 4.8 4.8 0.00 0.00 0.00 45 990.2
20260905191753 36 152 6.4 8.0 0.00 0.00 0.00 43 990.2
20260905191253 36 343 3.2 3.2 0.00 0.00 0.00 43 990.2
20260905190753 36 151 3.2 8.0 0.00 0.00 0.00 42 990.2
20260905190252 36 313 4.8 8.0 0.00 0.00 0.00 40 990.2
20260905185752 36 238 3.2 4.8 0.00 0.00 0.00 41 990.5
20260905185252 36 176 3.2 6.4 0.00 0.00 0.00 42 990.5
20260905184752 35 224 6.4 6.4 0.00 0.00 0.00 42 990.5
20260905184252 35 195 4.8 9.7 0.00 0.00 0.00 44 990.5
20260905183752 35 229 0.0 4.8 0.00 0.00 0.00 43 990.9
20260905183252 35 136 6.4 9.7 0.00 0.00 0.00 44 990.5
20260905182752 35 244 3.2 8.0 0.00 0.00 0.00 43 990.5
20260905182252 35 135 4.8 11.3 0.00 0.00 0.00 41 990.9
20260905181752 35 334 1.6 4.8 0.00 0.00 0.00 43 990.9
20260905181252 35 262 1.6 8.0 0.00 0.00 0.00 43 991.2
20260905180752 35 310 0.0 6.4 0.00 0.00 0.00 47 991.2
20260905180252 35 272 3.2 4.8 0.00 0.00 0.00 48 991.2
20260905175753 35 184 3.2 4.8 0.00 0.00 0.00 47 991.2
20260905175252 35 249 0.0 3.2 0.00 0.00 0.00 45 991.2
20260905174752 35 269 0.0 4.8 0.00 0.00 0.00 46 991.9
20260905174252 35 23 3.2 4.8 0.00 0.00 0.00 45 991.5
20260905173752 34 278 1.6 4.8 0.00 0.00 0.00 46 991.5
20260905173252 34 181 3.2 6.4 0.00 0.00 0.00 50 991.9
20260905172753 35 191 1.6 4.8 0.00 0.00 0.00 49 991.9
20260905172252 35 253 0.0 4.8 0.00 0.00 0.00 47 992.2
20260905171752 35 276 3.2 4.8 0.00 0.00 0.00 49 992.2
20260905171252 35 278 0.0 3.2 0.00 0.00 0.00 49 992.2
20260905170752 35 283 1.6 3.2 0.00 0.00 0.00 49 992.6
20260905170253 35 27 0.0 4.8 0.00 0.00 0.00 50 992.6
20260905165752 35 299 0.0 4.8 0.00 0.00 0.00 48 992.6
20260905165253 35 278 0.0 3.2 0.00 0.00 0.00 49 992.6
20260905164752 35 232 1.6 4.8 0.00 0.00 0.00 48 992.6
20260905164252 34 277 3.2 3.2 0.00 0.00 0.00 50 992.6
20260905163753 34 359 0.0 3.2 0.00 0.00 0.00 52 992.9
20260905163252 35 74 1.6 1.6 0.00 0.00 0.00 53 992.9
20260905162752 35 331 0.0 3.2 0.00 0.00 0.00 49 992.9
20260905162253 36 129 0.0 0.0 0.00 0.00 0.00 52 992.9
20260905161753 36 330 0.0 1.6 0.00 0.00 0.00 50 992.6
20260905161253 37 117 0.0 3.2 0.00 0.00 0.00 47 992.9
20260905160752 36 336 0.0 0.0 0.00 0.00 0.00 47 992.9
20260905160253 35 286 0.0 1.6 0.00 0.00 0.00 51 992.9
20260905155753 35 297 0.0 0.0 0.00 0.00 0.00 54 993.2
20260905155252 35 297 0.0 1.6 0.00 0.00 0.00 57 992.9
20260905154752 33 277 0.0 3.2 0.00 0.00 0.00 57 992.9
20260905154253 33 269 0.0 1.6 0.00 0.00 0.00 62 993.2
20260905153752 32 89 0.0 8.0 0.00 0.00 0.00 62 993.2
20260905153252 33 159 3.2 3.2 0.00 0.00 0.00 60 993.2
20260905152752 32 265 3.2 6.4 0.00 0.00 0.00 61 993.2
20260905152253 32 175 0.0 4.8 0.00 0.00 0.00 60 993.2
20260905151752 32 108 0.0 3.2 0.00 0.00 0.00 61 992.9
20260905151253 33 92 3.2 4.8 0.00 0.00 0.00 58 993.2
20260905150752 32 249 3.2 4.8 0.00 0.00 0.00 61 993.2
20260905150252 34 97 6.4 6.4 0.00 0.00 0.00 58 993.6
20260905145752 32 210 0.0 3.2 0.00 0.00 0.00 65 993.6
20260905145252 31 77 1.6 3.2 0.00 0.00 0.00 68 993.2
20260905144752 31 97 1.6 3.2 0.00 0.00 0.00 68 993.2
20260905144252 30 231 0.0 3.2 0.00 0.00 0.00 75 993.2
20260905143753 29 269 0.0 3.2 0.00 0.00 0.00 76 993.2
20260905143253 28 269 0.0 0.0 0.00 0.00 0.00 78 993.2
20260905142752 28 315 0.0 0.0 0.00 0.00 0.00 77 993.6
20260905142252 28 269 0.0 1.6 0.00 0.00 0.00 78 993.6
20260905141752 28 89 1.6 3.2 0.00 0.00 0.00 79 993.6
20260905141254 28 147 0.0 0.0 0.00 0.00 0.00 79 993.6
20260905140753 28 69 0.0 0.0 0.00 0.00 0.00 79 993.6
20260905140252 27 246 0.0 0.0 0.00 0.00 0.00 81 993.6
20260905135752 27 224 0.0 4.8 0.00 0.00 0.00 81 993.6
20260905135253 27 180 0.0 0.0 0.00 0.00 0.00 82 993.6
20260905134752 27 31 0.0 3.2 0.00 0.00 0.00 82 993.6
20260905134252 27 265 0.0 1.6 0.00 0.00 0.00 82 993.6
20260905133752 27 272 0.0 4.8 0.00 0.00 0.00 81 993.6
20260905133252 28 71 3.2 6.4 0.00 0.00 0.00 78 993.6
20260905132752 27 196 3.2 3.2 0.00 0.00 0.00 81 993.9
20260905132253 27 38 0.0 3.2 0.00 0.00 0.00 83 993.9
20260905131752 27 117 0.0 3.2 0.00 0.00 0.00 83 993.6
20260905131252 27 233 1.6 8.0 0.00 0.00 0.00 81 993.6
20260905130752 27 142 0.0 1.6 0.00 0.00 0.00 84 993.9
20260905130253 26 84 6.4 6.4 0.00 0.00 0.00 86 993.9
20260905125752 26 130 0.0 3.2 0.00 0.00 0.00 88 993.9
20260905125253 25 63 4.8 6.4 0.00 0.00 0.00 90 994.2
20260905124752 25 205 0.0 3.2 0.00 0.00 0.00 91 993.6
20260905124252 25 84 3.2 4.8 0.00 0.00 0.00 91 993.9
20260905123752 25 65 9.7 9.7 0.00 0.00 0.00 91 993.9
20260905123253 25 202 0.0 1.6 0.00 0.00 0.00 94 994.2
20260905122752 23 60 3.2 3.2 0.00 0.00 0.00 99 993.9
20260905122252 23 135 0.0 3.2 0.00 0.00 0.00 99 994.2
20260905121752 23 258 0.0 1.6 0.00 0.00 0.00 99 993.9
20260905121252 23 299 0.0 1.6 0.00 0.00 0.00 99 993.9
20260905120752 23 131 0.0 1.6 0.00 0.00 0.00 99 993.9
20260905120253 23 243 0.0 1.6 0.00 0.00 0.00 99 993.9
20260905115752 23 202 0.0 1.6 0.00 0.00 0.00 99 993.6
20260905115252 23 284 0.0 1.6 0.00 0.00 0.00 99 993.9
20260905114753 23 256 0.0 1.6 0.00 0.00 0.00 99 993.6
20260905114252 22 135 0.0 1.6 0.00 0.00 0.00 99 993.6
20260905113752 22 293 0.0 0.0 0.00 0.00 0.00 99 993.6
20260905113253 22 284 0.0 1.6 0.00 0.00 0.00 99 993.6
20260905112754 22 269 0.0 0.0 0.00 0.00 0.00 99 993.6
20260905112253 22 242 0.0 0.0 0.00 0.00 0.00 99 993.6
20260905111752 22 257 0.0 0.0 0.00 0.00 0.00 99 993.2
20260905111254 22 260 0.0 0.0 0.00 0.00 0.00 99 993.2
20260905110752 22 245 0.0 0.0 0.00 0.00 0.00 99 993.2
20260905110252 22 224 0.0 0.0 0.00 0.00 0.00 99 993.2
20260905105753 22 224 0.0 0.0 0.00 0.00 0.00 99 992.9
20260905105255 22 269 0.0 0.0 0.00 0.00 0.00 99 992.6
20260905104752 22 230 0.0 0.0 0.00 0.00 0.00 99 992.9
20260905104252 22 256 0.0 0.0 0.00 0.00 0.00 99 992.6
20260905103752 22 180 0.0 0.0 0.00 0.00 0.00 99 992.6
20260905103252 22 162 0.0 0.0 0.00 0.00 0.00 99 992.6
20260905102752 22 321 0.0 0.0 0.00 0.00 0.00 99 992.6
20260905102252 22 269 0.0 0.0 0.00 0.00 0.00 99 992.6
20260905101752 22 269 0.0 0.0 0.00 0.00 0.00 99 992.6
20260905101252 22 269 0.0 0.0 0.00 0.00 0.00 99 992.6
20260905100753 22 284 0.0 0.0 0.00 0.00 0.00 99 992.6
20260905100252 22 269 0.0 0.0 0.00 0.00 0.00 99 992.2
20260905095754 22 224 0.0 0.0 0.00 0.00 0.00 99 992.2
20260905095252 23 269 0.0 0.0 0.00 0.00 0.00 99 992.2
20260905094752 22 218 0.0 1.6 0.00 0.00 0.00 99 992.2
20260905094252 22 243 0.0 0.0 0.00 0.00 0.00 99 992.2
20260905093752 23 224 0.0 1.6 0.00 0.00 0.00 99 992.2
20260905093252 23 224 0.0 0.0 0.00 0.00 0.00 99 992.2
20260905092753 23 269 0.0 0.0 0.00 0.00 0.00 99 992.2
20260905092252 23 224 0.0 1.6 0.00 0.00 0.00 99 992.2
20260905091753 23 214 0.0 0.0 0.00 0.00 0.00 98 992.2
20260905091252 23 224 0.0 0.0 0.00 0.00 0.00 98 992.6
20260905090752 23 224 0.0 0.0 0.00 0.00 0.00 98 992.6
20260905090253 23 309 0.0 0.0 0.00 0.00 0.00 98 992.6
20260905085752 23 230 0.0 0.0 0.00 0.00 0.00 98 992.6
20260905085253 23 89 0.0 0.0 0.00 0.00 0.00 98 992.6
20260905084752 23 135 0.0 0.0 0.00 0.00 0.00 98 992.6
20260905084252 23 230 0.0 1.6 0.00 0.00 0.00 98 992.6
20260905083752 23 224 0.0 0.0 0.00 0.00 0.00 98 992.6
20260905083252 23 256 0.0 1.6 0.00 0.00 0.00 98 992.6
20260905082752 23 224 0.0 1.6 0.00 0.00 0.00 98 992.6
20260905082252 23 297 0.0 0.0 0.00 0.00 0.00 98 992.9
20260905081752 23 242 0.0 0.0 0.00 0.00 0.00 98 992.9
20260905081252 23 224 0.0 0.0 0.00 0.00 0.00 98 992.9
20260905080752 23 224 0.0 1.6 0.00 0.00 0.00 98 992.9
20260905080253 23 249 0.0 0.0 0.00 0.00 0.00 98 992.9
20260905075752 23 242 0.0 0.0 0.00 0.00 0.00 99 992.9
20260905075253 23 129 0.0 0.0 0.00 0.00 0.00 98 992.9
20260905074753 23 217 0.0 0.0 0.00 0.00 0.00 98 993.2
20260905074252 23 246 0.0 0.0 0.00 0.00 0.00 98 993.2
20260905073752 23 246 0.0 0.0 0.00 0.00 0.00 98 993.2
20260905073252 23 62 0.0 0.0 0.00 0.00 0.00 98 993.2
20260905072752 23 269 0.0 0.0 0.00 0.00 0.00 98 993.2